Flag for Australia Weather past 2 weeks in Darwin, Northern Territory, Australia

Now
66 °F

Passing clouds.


Feels Like: 66 °F
Forecast: 64 / 89 °F
Wind: 5 mph from Northeast

Location: Darwin Airport

Current Time: Aug 30, 2014 at 6:05:21 AM

Latest Report: Aug 30, 2014 at 4:30 AM


Visibility: N/A

Pressure: 29.95 "Hg

Humidity: 94%

Dew point: 64 °F

Location of DarwinLocation

Historic Weather in Darwin — Graph

°F

Darwin temperature yesterday

Maximum temperature yesterday: 90 °F (at 2:00 PM)
Minimum temperature yesterday: 63 °F (at 1:30 AM)
Average temperature yesterday: 74 °F

Past Weeks' High & Low Weather Summary

 TemperatureHumidityPressure
High91 °F (Aug 25, 2:00 PM)100% (Aug 24, 5:30 AM)30.07 "Hg (Aug 24, 5:30 AM)
Low55 °F (Aug 23, 5:00 AM)6% (Aug 28, 2:00 PM)29.83 "Hg (Aug 26, 5:00 PM)
Average74 °F51%29.95 "Hg
* Reported Aug 15 3:30 AM — Aug 30 4:00 AM, Darwin, Weather by CustomWeather, © 2014

Note: Actual official high and low records may vary slightly from our data, if they occured in-between our weather recording intervals... More about our weather records

Advertising

Darwin weather history for previous 24 hours

 ConditionsComfort  
Time TempWeatherWind HumidityBarometerVisibility
4:00 AM
Aug 30
66 °FPassing clouds.5 mph94%29.95 "HgN/A
3:30 AM68 °FPassing clouds.9 mph94%29.95 "HgN/A
3:00 AM70 °FClear.8 mph94%29.92 "Hg10 mi
2:30 AM72 °FClear.8 mph88%29.95 "Hg10 mi
2:00 AM72 °FClear.9 mph83%29.95 "Hg10 mi
1:30 AM72 °FClear.8 mph83%29.95 "Hg10 mi
1:00 AM70 °FClear.8 mph83%29.95 "Hg10 mi
12:30 AM70 °FClear.7 mph78%29.95 "Hg10 mi
12:00 AM66 °FClear.7 mph88%29.95 "Hg10 mi
11:30 PM
Aug 29
66 °FClear.No wind83%29.95 "Hg10 mi
11:00 PM66 °FClear.6 mph83%29.95 "Hg10 mi
10:30 PM72 °FClear.7 mph69%29.95 "Hg10 mi
10:00 PM73 °FClear.9 mph69%29.95 "Hg10 mi
9:30 PM73 °FClear.8 mph69%29.95 "Hg10 mi
9:00 PM73 °FClear.8 mph65%29.95 "Hg10 mi
8:30 PM75 °FClear.8 mph61%29.92 "Hg10 mi
8:00 PM75 °FClear.8 mph57%29.92 "Hg10 mi
7:30 PM75 °FClear.8 mph54%29.92 "Hg10 mi
7:00 PM77 °FSunny.8 mph44%29.92 "Hg10 mi
6:30 PM79 °FSunny.9 mph39%29.89 "Hg10 mi
6:00 PM81 °FSunny.12 mph32%29.89 "Hg10 mi
5:30 PM82 °FSunny.12 mph32%29.89 "Hg10 mi
5:00 PM82 °FSunny.14 mph28%29.89 "Hg10 mi
4:30 PM84 °FSunny.14 mph27%29.89 "Hg10 mi
4:00 PM84 °FSunny.13 mph31%29.89 "Hg10 mi
3:30 PM86 °FSunny.15 mph24%29.89 "Hg10 mi
3:00 PM86 °FSunny.15 mph27%29.89 "Hg10 mi
2:30 PM90 °FSunny.10 mph9%29.89 "Hg10 mi
2:00 PM90 °FSunny.9 mph12%29.92 "Hg10 mi
1:30 PM88 °FSunny.10 mph13%29.92 "Hg10 mi
1:00 PM88 °FSunny.13 mph13%29.92 "Hg10 mi
12:33 PM86 °FSunny.18 mph18%29.95 "Hg10 mi
12:00 PM84 °FSunny.13 mph16%29.95 "Hg10 mi
11:30 AM86 °FSunny.14 mph17%29.98 "Hg10 mi
10:30 AM82 °FSunny.15 mph23%29.98 "Hg10 mi
10:00 AM81 °FSunny.7 mph39%30.01 "Hg10 mi
9:30 AM81 °FSunny.6 mph48%30.01 "Hg10 mi
9:00 AM75 °FSunny.5 mph57%30.01 "Hg10 mi
8:30 AM73 °FSunny.5 mph53%29.98 "Hg10 mi
8:00 AM70 °FSunny.5 mph64%29.98 "Hg10 mi
7:30 AM64 °FSunny.5 mph83%29.98 "Hg10 mi
7:00 AM63 °FClear.5 mph88%29.98 "Hg10 mi
6:30 AM64 °FClear.6 mph83%29.95 "Hg10 mi
6:00 AM63 °FClear.3 mph83%29.95 "Hg10 mi
Weather by CustomWeather, © 2014

See weather overviewHow to use our weather pages